OCN2NG GCFV-EDDB

Flight info

Callsign OCN2NG
Flight time 2h 34m
Altitude 34000
Route KORAL UG5 SONSO DCT ADUBI DCT VJF L27 MAR DCT ALCOL DCT LOGRO DCT ETANA DCT VTB DCT PALIO DCT SEGRE DCT YAKXU DCT RONNY DCT TOPTU DCT TOU DCT GAI DCT MEN DCT NINUN DCT LATAM DCT ETREK DCT LTP DCT SOPLO DCT OMASI DCT KINNI DCT SOSAL DCT KORED DCT BERSU DCT DITON DCT LOKTA DCT TIKNI T279 TAMEB T278 KLF
Aircraft A320/M-SDE3FGHIRWY/LB1

Departure

Time 2026-04-30 18:34
Airport Fuerteventura Airport (GCFV)

Arrival

Time 2026-04-30 21:08
Airport Berlin Brandenburg Airport (EDDB)
Time Latitude Longitude Altitude Speed Heading
2026-04-30 18:07 28.45269 -13.86827 88 ft 0 kts 271°
2026-04-30 18:24 28.45269 -13.86811 89 ft 2 kts 271°
2026-04-30 18:24 28.45269 -13.86792 86 ft 2 kts 272°
2026-04-30 18:24 28.45269 -13.86773 87 ft 2 kts 273°
2026-04-30 18:25 28.45268 -13.86754 89 ft 2 kts 264°
2026-04-30 18:25 28.45292 -13.86737 88 ft 2 kts 187°
2026-04-30 18:25 28.45295 -13.86735 88 ft 0 kts 170°
2026-04-30 18:26 28.45292 -13.86735 90 ft 0 kts 171°
2026-04-30 18:26 28.45288 -13.86734 89 ft 1 kts 171°
2026-04-30 18:26 28.45285 -13.86733 89 ft 1 kts 171°
2026-04-30 18:27 28.45279 -13.86732 89 ft 0 kts 171°
2026-04-30 18:27 28.45278 -13.86732 89 ft 0 kts 170°
2026-04-30 18:28 28.45250 -13.86734 86 ft 7 kts 186°
2026-04-30 18:29 28.45198 -13.86740 87 ft 9 kts 184°
2026-04-30 18:29 28.45047 -13.86577 81 ft 12 kts 177°
2026-04-30 18:30 28.44875 -13.86582 72 ft 19 kts 181°
2026-04-30 18:30 28.44567 -13.86589 69 ft 20 kts 181°
2026-04-30 18:31 28.44471 -13.86592 71 ft 21 kts 182°
2026-04-30 18:31 28.44150 -13.86605 61 ft 25 kts 181°
2026-04-30 18:32 28.43784 -13.86618 59 ft 27 kts 181°
2026-04-30 18:32 28.43605 -13.86623 55 ft 24 kts 181°
2026-04-30 18:32 28.43352 -13.86600 52 ft 13 kts 115°
2026-04-30 18:33 28.43381 -13.86519 54 ft 10 kts 54°
2026-04-30 18:33 28.43474 -13.86435 54 ft 9 kts
2026-04-30 18:33 28.43605 -13.86430 53 ft 46 kts
2026-04-30 18:34 28.44156 -13.86411 64 ft 109 kts
2026-04-30 18:34 28.46285 -13.86329 310 ft 180 kts
2026-04-30 18:34 28.47511 -13.86069 952 ft 180 kts 24°
2026-04-30 18:35 28.48639 -13.85435 1534 ft 185 kts 28°
2026-04-30 18:35 28.49805 -13.84713 1941 ft 197 kts 28°
2026-04-30 18:35 28.51021 -13.83950 2384 ft 206 kts 27°
2026-04-30 18:36 28.53771 -13.82263 3190 ft 244 kts 26°
2026-04-30 18:36 28.55322 -13.81347 3735 ft 256 kts 25°
2026-04-30 18:36 28.58573 -13.79452 5189 ft 267 kts 24°
2026-04-30 18:37 28.60245 -13.78467 5892 ft 273 kts 25°
2026-04-30 18:37 28.61947 -13.77462 6606 ft 277 kts 25°
2026-04-30 18:37 28.63674 -13.76443 7284 ft 282 kts 25°
2026-04-30 18:37 28.65436 -13.75405 7949 ft 287 kts 25°
2026-04-30 18:38 28.67223 -13.74355 8636 ft 292 kts 25°
2026-04-30 18:38 28.69023 -13.73300 9312 ft 297 kts 25°
2026-04-30 18:38 28.70893 -13.72272 9999 ft 301 kts 22°
2026-04-30 18:38 28.72831 -13.71277 10395 ft 315 kts 21°
2026-04-30 18:39 28.74925 -13.70237 10533 ft 338 kts 21°
2026-04-30 18:39 28.77159 -13.69133 10657 ft 360 kts 21°
2026-04-30 18:39 28.79454 -13.67792 10798 ft 381 kts 34°
2026-04-30 18:39 28.81402 -13.65684 11208 ft 391 kts 46°
2026-04-30 18:40 28.83239 -13.63367 11758 ft 395 kts 47°
2026-04-30 18:40 28.85080 -13.61021 12342 ft 399 kts 47°
2026-04-30 18:40 28.86930 -13.58656 12889 ft 402 kts 47°
2026-04-30 18:40 28.88798 -13.56266 13443 ft 406 kts 46°
2026-04-30 18:41 28.90684 -13.53855 13970 ft 410 kts 46°
2026-04-30 18:41 28.92595 -13.51414 14439 ft 413 kts 46°
2026-04-30 18:41 28.94495 -13.48988 14909 ft 416 kts 46°
2026-04-30 18:41 28.96454 -13.46484 15376 ft 419 kts 46°
2026-04-30 18:42 28.98382 -13.44019 15831 ft 422 kts 46°
2026-04-30 18:42 29.02350 -13.38934 16742 ft 428 kts 46°
2026-04-30 18:42 29.04315 -13.36415 17184 ft 431 kts 45°
2026-04-30 18:45 29.24934 -13.09900 21027 ft 460 kts 45°
2026-04-30 18:45 29.27059 -13.07152 21385 ft 463 kts 45°
2026-04-30 18:45 29.29203 -13.04379 21716 ft 465 kts 45°
2026-04-30 18:46 29.31361 -13.01591 22057 ft 468 kts 44°
2026-04-30 18:46 29.33523 -12.98794 22385 ft 471 kts 44°
2026-04-30 18:46 29.35703 -12.95970 22699 ft 473 kts 44°
2026-04-30 18:46 29.37866 -12.93167 23008 ft 476 kts 44°
2026-04-30 18:47 29.40098 -12.90276 23323 ft 478 kts 44°
2026-04-30 18:47 29.42276 -12.87453 23616 ft 481 kts 44°
2026-04-30 18:47 29.44504 -12.84567 23899 ft 483 kts 44°
2026-04-30 18:47 29.46732 -12.81675 24163 ft 485 kts 44°
2026-04-30 18:48 29.48976 -12.78758 24417 ft 488 kts 44°
2026-04-30 18:48 29.51219 -12.75835 24679 ft 490 kts 44°
2026-04-30 18:48 29.53481 -12.72886 24920 ft 492 kts 44°
2026-04-30 18:48 29.55742 -12.69934 25165 ft 494 kts 44°
2026-04-30 18:49 29.58020 -12.66961 25407 ft 496 kts 44°
2026-04-30 18:49 29.60308 -12.63979 25645 ft 497 kts 44°
2026-04-30 18:49 29.62609 -12.60977 25880 ft 499 kts 44°
2026-04-30 18:49 29.64907 -12.57977 26111 ft 501 kts 44°
2026-04-30 18:50 29.67210 -12.54965 26342 ft 503 kts 44°
2026-04-30 18:50 29.69514 -12.51944 26553 ft 504 kts 44°
2026-04-30 18:50 29.71834 -12.48899 26780 ft 506 kts 44°
2026-04-30 18:50 29.74158 -12.45849 26999 ft 508 kts 44°
2026-04-30 18:51 29.76489 -12.42788 27216 ft 509 kts 44°
2026-04-30 18:51 29.78822 -12.39728 27539 ft 508 kts 44°
2026-04-30 18:51 29.81149 -12.36673 27886 ft 507 kts 44°
2026-04-30 18:51 29.83437 -12.33667 28229 ft 506 kts 44°
2026-04-30 18:52 29.85758 -12.30618 28539 ft 505 kts 44°
2026-04-30 18:52 29.88072 -12.27571 28858 ft 505 kts 44°
2026-04-30 18:52 29.90379 -12.24525 29158 ft 504 kts 44°
2026-04-30 18:52 29.92686 -12.21481 29469 ft 504 kts 44°
2026-04-30 18:53 29.94992 -12.18440 29784 ft 503 kts 43°
2026-04-30 18:53 29.97294 -12.15400 30089 ft 503 kts 43°
2026-04-30 18:53 29.99593 -12.12358 30368 ft 503 kts 43°
2026-04-30 18:53 30.02029 -12.09509 30627 ft 495 kts 35°
2026-04-30 18:54 30.04693 -12.07025 30895 ft 491 kts 32°
2026-04-30 18:54 30.07372 -12.04588 31186 ft 490 kts 32°
2026-04-30 18:54 30.10044 -12.02158 31501 ft 488 kts 32°
2026-04-30 18:54 30.12700 -11.99736 31823 ft 486 kts 32°
2026-04-30 18:55 30.15344 -11.97318 32125 ft 484 kts 32°
2026-04-30 18:55 30.20608 -11.92490 32716 ft 481 kts 32°
2026-04-30 18:55 30.23226 -11.90091 33005 ft 480 kts 31°
2026-04-30 18:56 30.28443 -11.85315 33572 ft 477 kts 31°
2026-04-30 18:56 30.31037 -11.82932 33859 ft 475 kts 31°
2026-04-30 18:56 30.33628 -11.80546 34082 ft 475 kts 31°
2026-04-30 18:57 30.38807 -11.75784 34136 ft 476 kts 31°
2026-04-30 18:57 30.43995 -11.71010 34153 ft 476 kts 31°
2026-04-30 18:58 30.51741 -11.63880 34137 ft 476 kts 31°
2026-04-30 18:59 30.59521 -11.56687 34125 ft 476 kts 31°
2026-04-30 19:00 30.69878 -11.47090 34135 ft 476 kts 31°
2026-04-30 19:01 30.80224 -11.37473 34151 ft 476 kts 31°
2026-04-30 19:02 30.87952 -11.30289 34151 ft 475 kts 31°
2026-04-30 19:03 30.98264 -11.20652 34148 ft 474 kts 31°
2026-04-30 19:04 31.08556 -11.11011 34165 ft 474 kts 31°
2026-04-30 19:05 31.18842 -11.01352 34144 ft 474 kts 31°
2026-04-30 19:06 31.29121 -10.91660 34152 ft 474 kts 31°
2026-04-30 19:06 31.36821 -10.84402 34161 ft 474 kts 31°
2026-04-30 19:07 31.44512 -10.77134 34147 ft 474 kts 31°
2026-04-30 19:08 31.54737 -10.67425 34137 ft 474 kts 31°
2026-04-30 19:09 31.62432 -10.60110 34138 ft 474 kts 31°
2026-04-30 19:09 31.67561 -10.55227 34145 ft 475 kts 31°
2026-04-30 19:10 31.77824 -10.45408 34134 ft 476 kts 31°
2026-04-30 19:11 31.85497 -10.38069 34134 ft 476 kts 32°
2026-04-30 19:12 31.90632 -10.33140 34137 ft 476 kts 32°
2026-04-30 19:12 31.95768 -10.28214 34147 ft 477 kts 31°
2026-04-30 19:13 32.06060 -10.18299 34137 ft 477 kts 31°
2026-04-30 19:14 32.11204 -10.13343 34146 ft 477 kts 31°
2026-04-30 19:14 32.16341 -10.08384 34144 ft 476 kts 31°
2026-04-30 19:15 32.21432 -10.03454 34143 ft 476 kts 31°
2026-04-30 19:15 32.29117 -9.96013 34157 ft 476 kts 31°
2026-04-30 19:16 32.34229 -9.91046 34151 ft 476 kts 32°
2026-04-30 19:17 32.41901 -9.83567 34129 ft 476 kts 32°
2026-04-30 19:17 32.49558 -9.76091 34156 ft 475 kts 31°
2026-04-30 19:18 32.56338 -9.69465 34155 ft 474 kts 32°
2026-04-30 19:19 32.61421 -9.64488 34152 ft 474 kts 32°
2026-04-30 19:19 32.69033 -9.57012 34145 ft 473 kts 32°
2026-04-30 19:20 32.74118 -9.52018 34137 ft 473 kts 32°
2026-04-30 19:21 32.81727 -9.44535 34165 ft 473 kts 32°
2026-04-30 19:22 32.91813 -9.34570 34153 ft 472 kts 32°
2026-04-30 19:23 33.06957 -9.19553 34143 ft 472 kts 32°
2026-04-30 19:24 33.14515 -9.12039 34137 ft 472 kts 32°
2026-04-30 19:25 33.27064 -8.99506 34152 ft 470 kts 32°
2026-04-30 19:26 33.37076 -8.89490 34160 ft 469 kts 33°
2026-04-30 19:27 33.44552 -8.81992 34148 ft 469 kts 33°
2026-04-30 19:28 33.52053 -8.74435 34151 ft 469 kts 33°
2026-04-30 19:29 33.62043 -8.64335 34158 ft 468 kts 33°
2026-04-30 19:30 33.71977 -8.54296 34164 ft 468 kts 33°
2026-04-30 19:31 33.81930 -8.44194 34144 ft 468 kts 33°
2026-04-30 19:31 33.89385 -8.36600 34141 ft 468 kts 33°
2026-04-30 19:32 33.94352 -8.31525 34171 ft 468 kts 34°
2026-04-30 19:32 33.99278 -8.26485 34160 ft 467 kts 34°
2026-04-30 19:33 34.04232 -8.21414 34151 ft 467 kts 34°
2026-04-30 19:33 34.09185 -8.16328 34147 ft 467 kts 34°
2026-04-30 19:34 34.14132 -8.11255 34147 ft 466 kts 34°
2026-04-30 19:35 34.21549 -8.03628 34158 ft 466 kts 34°
2026-04-30 19:35 34.26455 -7.98564 34149 ft 467 kts 34°
2026-04-30 19:36 34.31421 -7.93437 34139 ft 467 kts 34°
2026-04-30 19:36 34.38802 -7.85798 34134 ft 467 kts 34°
2026-04-30 19:37 34.43743 -7.80681 34135 ft 467 kts 34°
2026-04-30 19:37 34.48682 -7.75556 34130 ft 467 kts 34°
2026-04-30 19:38 34.53616 -7.70417 34147 ft 467 kts 34°
2026-04-30 19:38 34.58548 -7.65278 34143 ft 467 kts 34°
2026-04-30 19:39 34.63473 -7.60148 34148 ft 467 kts 34°
2026-04-30 19:39 34.68395 -7.55007 34153 ft 466 kts 34°
2026-04-30 19:40 34.73280 -7.49901 34153 ft 465 kts 34°
2026-04-30 19:40 34.81068 -7.41725 34163 ft 464 kts 34°
2026-04-30 19:41 35.00557 -7.21181 34143 ft 463 kts 34°
2026-04-30 19:41 35.19978 -7.00568 34136 ft 462 kts 35°
2026-04-30 19:42 35.39369 -6.79858 34075 ft 465 kts 37°
2026-04-30 19:42 35.58984 -6.58802 34113 ft 473 kts 38°
2026-04-30 19:43 35.78902 -6.37232 34078 ft 479 kts 40°
2026-04-30 19:44 36.08721 -6.04156 34095 ft 484 kts 42°
2026-04-30 19:44 36.28691 -5.81742 34097 ft 484 kts 42°
2026-04-30 19:45 36.48625 -5.59239 34102 ft 483 kts 42°
2026-04-30 19:45 36.68445 -5.36664 34084 ft 483 kts 42°
2026-04-30 19:46 36.88250 -5.13943 34063 ft 484 kts 43°
2026-04-30 19:46 37.08759 -4.92303 34011 ft 484 kts 22°
2026-04-30 19:47 37.33694 -4.79275 34052 ft 486 kts 21°
2026-04-30 19:47 37.58655 -4.66173 34061 ft 485 kts 21°
2026-04-30 19:48 37.83550 -4.52962 34033 ft 486 kts 22°
2026-04-30 19:48 38.08394 -4.39710 34053 ft 487 kts 22°
2026-04-30 19:49 38.33348 -4.26289 34066 ft 486 kts 22°
2026-04-30 19:49 38.70695 -4.06027 34074 ft 486 kts 22°
2026-04-30 19:50 38.95529 -3.92406 34070 ft 484 kts 22°
2026-04-30 19:50 39.20346 -3.78704 34050 ft 484 kts 22°
2026-04-30 19:51 39.45096 -3.64925 34070 ft 485 kts 22°
2026-04-30 19:51 39.69879 -3.51036 34083 ft 484 kts 22°
2026-04-30 19:52 39.81858 -3.43162 34072 ft 484 kts 34°
2026-04-30 19:52 39.93101 -3.33491 34087 ft 483 kts 33°
2026-04-30 19:52 40.15454 -3.14183 34108 ft 480 kts 34°
2026-04-30 19:53 40.37483 -2.95012 34096 ft 477 kts 34°
2026-04-30 19:53 40.59576 -2.75622 34107 ft 477 kts 34°
2026-04-30 19:54 40.81671 -2.56053 34104 ft 477 kts 34°
2026-04-30 19:54 41.03646 -2.36364 34112 ft 477 kts 36°
2026-04-30 19:55 41.24298 -2.14223 34097 ft 477 kts 38°
2026-04-30 19:55 41.44905 -1.92178 34087 ft 479 kts 38°
2026-04-30 19:56 41.65697 -1.69683 34102 ft 482 kts 38°
2026-04-30 19:56 41.86466 -1.47067 34097 ft 480 kts 38°
2026-04-30 19:57 42.07116 -1.24318 34093 ft 480 kts 38°
2026-04-30 19:57 42.27740 -1.01472 34104 ft 480 kts 38°
2026-04-30 19:58 42.47216 -0.76875 34124 ft 483 kts 51°
2026-04-30 19:58 42.63679 -0.47897 34155 ft 485 kts 50°
2026-04-30 19:59 42.79943 -0.18854 34168 ft 486 kts 51°
2026-04-30 20:00 43.05624 0.23990 34181 ft 486 kts 48°
2026-04-30 20:00 43.22670 0.52767 34142 ft 487 kts 48°
2026-04-30 20:01 43.48141 0.96382 34168 ft 489 kts 48°
2026-04-30 20:01 43.65133 1.25808 34178 ft 491 kts 48°
2026-04-30 20:02 43.89510 1.71252 34211 ft 493 kts 50°
2026-04-30 20:03 44.13072 2.17938 34215 ft 488 kts 53°
2026-04-30 20:03 44.28492 2.48966 34229 ft 485 kts 53°
2026-04-30 20:04 44.43725 2.79967 34240 ft 483 kts 53°
2026-04-30 20:05 44.66238 3.26387 34246 ft 479 kts 54°
2026-04-30 20:05 44.88470 3.72997 34229 ft 478 kts 54°
2026-04-30 20:06 45.03157 4.04166 34244 ft 475 kts 54°
2026-04-30 20:06 45.17615 4.35221 34183 ft 465 kts 56°
2026-04-30 20:07 45.24686 4.50561 34298 ft 465 kts 56°
2026-04-30 20:07 45.31748 4.65925 34210 ft 468 kts 57°
2026-04-30 20:07 45.45733 4.96580 34092 ft 459 kts 58°
2026-04-30 20:08 45.52655 5.11879 34250 ft 456 kts 58°
2026-04-30 20:08 45.66548 5.42927 34202 ft 466 kts 58°
2026-04-30 20:08 45.71098 5.53120 34297 ft 452 kts 57°
2026-04-30 20:09 45.80127 5.73537 34091 ft 451 kts 57°
2026-04-30 20:09 46.00533 6.10675 34282 ft 443 kts 48°
2026-04-30 20:10 46.24717 6.50947 34082 ft 437 kts 49°
2026-04-30 20:10 46.32631 6.64226 34253 ft 431 kts 49°
2026-04-30 20:11 46.48330 6.90729 34149 ft 435 kts 49°
2026-04-30 20:11 46.63824 7.17149 34252 ft 425 kts 49°
2026-04-30 20:12 46.86736 7.56650 34109 ft 424 kts 49°
2026-04-30 20:12 46.94312 7.69879 34277 ft 419 kts 49°
2026-04-30 20:13 47.01828 7.83041 34332 ft 424 kts 50°
2026-04-30 20:13 47.09386 7.96345 34151 ft 426 kts 49°
2026-04-30 20:13 47.16922 8.09659 34128 ft 422 kts 50°
2026-04-30 20:13 47.24415 8.22941 34306 ft 418 kts 50°
2026-04-30 20:14 47.32346 8.35442 34323 ft 419 kts 34°
2026-04-30 20:14 47.42191 8.44845 34162 ft 421 kts 34°
2026-04-30 20:14 47.51921 8.54323 34244 ft 416 kts 34°
2026-04-30 20:14 47.61655 8.63809 34379 ft 417 kts 34°
2026-04-30 20:15 47.71418 8.73364 34314 ft 422 kts 34°
2026-04-30 20:15 47.81148 8.82959 34163 ft 423 kts 34°
2026-04-30 20:15 47.90881 8.92584 34286 ft 415 kts 34°
2026-04-30 20:15 48.00454 9.02063 34417 ft 413 kts 34°
2026-04-30 20:16 48.04469 9.06065 34272 ft 414 kts 35°
2026-04-30 20:16 48.09269 9.10857 34311 ft 416 kts 34°
2026-04-30 20:17 48.14084 9.15672 34322 ft 415 kts 33°
2026-04-30 20:17 48.19363 9.19058 34324 ft 419 kts 15°
2026-04-30 20:18 48.25091 9.20747 34326 ft 420 kts 14°
2026-04-30 20:18 48.30837 9.22444 34324 ft 420 kts 14°
2026-04-30 20:19 48.36592 9.24146 34331 ft 420 kts 14°
2026-04-30 20:19 48.42327 9.25845 34330 ft 420 kts 14°
2026-04-30 20:20 48.48060 9.27555 34328 ft 420 kts 14°
2026-04-30 20:20 48.53772 9.29267 34334 ft 420 kts 14°
2026-04-30 20:21 48.59501 9.30986 34331 ft 420 kts 14°
2026-04-30 20:21 48.65241 9.32699 34334 ft 420 kts 14°
2026-04-30 20:22 48.70983 9.34419 34330 ft 420 kts 14°
2026-04-30 20:22 48.76720 9.36144 34331 ft 420 kts 14°
2026-04-30 20:23 48.82453 9.37871 34330 ft 420 kts 14°
2026-04-30 20:23 48.88202 9.39604 34335 ft 420 kts 14°
2026-04-30 20:24 48.93904 9.41326 34334 ft 420 kts 14°
2026-04-30 20:24 48.99637 9.43069 34339 ft 420 kts 14°
2026-04-30 20:25 49.08252 9.45692 34350 ft 420 kts 14°
2026-04-30 20:26 49.16865 9.48327 34345 ft 421 kts 14°
2026-04-30 20:26 49.25468 9.50969 34350 ft 421 kts 14°
2026-04-30 20:27 49.36935 9.54504 34339 ft 421 kts 14°
2026-04-30 20:28 49.48436 9.58056 34350 ft 422 kts 13°
2026-04-30 20:30 49.62841 9.62549 34350 ft 422 kts 13°
2026-04-30 20:31 49.80096 9.67932 34369 ft 423 kts 13°
2026-04-30 20:32 49.94511 9.72494 34378 ft 423 kts 13°
2026-04-30 20:33 50.03128 9.75214 34384 ft 423 kts 13°
2026-04-30 20:34 50.11780 9.77975 34389 ft 423 kts 13°
2026-04-30 20:35 50.20420 9.80732 34396 ft 423 kts 13°
2026-04-30 20:35 50.29062 9.83498 34403 ft 423 kts 13°
2026-04-30 20:36 50.34839 9.85359 34400 ft 423 kts 13°
2026-04-30 20:36 50.40366 9.88285 34405 ft 420 kts 30°
2026-04-30 20:37 50.42809 9.90798 34401 ft 419 kts 39°
2026-04-30 20:37 50.46936 9.97242 34395 ft 420 kts 46°
2026-04-30 20:38 50.50958 10.03920 34393 ft 421 kts 46°
2026-04-30 20:38 50.54989 10.10613 34404 ft 422 kts 46°
2026-04-30 20:39 50.61031 10.20717 34412 ft 422 kts 46°
2026-04-30 20:40 50.66553 10.31390 34442 ft 424 kts 59°
2026-04-30 20:40 50.69354 10.39577 34446 ft 424 kts 59°
2026-04-30 20:41 50.73575 10.51826 34443 ft 423 kts 59°
2026-04-30 20:41 50.76369 10.60001 34445 ft 423 kts 60°
2026-04-30 20:42 50.79144 10.68174 34445 ft 423 kts 60°
2026-04-30 20:43 50.83310 10.80472 34450 ft 422 kts 60°
2026-04-30 20:43 50.86082 10.88679 34467 ft 423 kts 60°
2026-04-30 20:44 50.90201 11.00925 34461 ft 421 kts 60°
2026-04-30 20:45 50.95668 11.17308 34453 ft 421 kts 60°
2026-04-30 20:45 50.98405 11.25529 34454 ft 420 kts 60°
2026-04-30 20:46 51.03860 11.41959 34476 ft 421 kts 60°
2026-04-30 20:47 51.06574 11.50192 33719 ft 418 kts 60°
2026-04-30 20:47 51.07918 11.54282 33183 ft 417 kts 60°
2026-04-30 20:48 51.10604 11.62477 32125 ft 418 kts 60°
2026-04-30 20:48 51.11949 11.66591 31616 ft 419 kts 60°
2026-04-30 20:48 51.13289 11.70702 31121 ft 419 kts 60°
2026-04-30 20:48 51.14630 11.74819 30631 ft 420 kts 60°
2026-04-30 20:49 51.15975 11.78961 30088 ft 421 kts 60°
2026-04-30 20:49 51.17319 11.83102 29523 ft 422 kts 60°
2026-04-30 20:49 51.18671 11.87272 28976 ft 423 kts 60°
2026-04-30 20:50 51.21634 11.95333 27895 ft 426 kts 51°
2026-04-30 20:50 51.23585 11.98904 27389 ft 426 kts 45°
2026-04-30 20:50 51.25632 12.02320 26878 ft 427 kts 46°
2026-04-30 20:50 51.27685 12.05761 26371 ft 428 kts 46°
2026-04-30 20:51 51.29733 12.09212 25870 ft 429 kts 46°
2026-04-30 20:51 51.33832 12.16130 24909 ft 426 kts 46°
2026-04-30 20:51 51.35869 12.19570 24440 ft 424 kts 46°
2026-04-30 20:52 51.37887 12.22985 23970 ft 421 kts 46°
2026-04-30 20:52 51.39887 12.26380 23423 ft 418 kts 46°
2026-04-30 20:52 51.43850 12.33111 22333 ft 412 kts 46°
2026-04-30 20:53 51.45802 12.36434 21828 ft 408 kts 46°
2026-04-30 20:53 51.47737 12.39731 21307 ft 405 kts 46°
2026-04-30 20:53 51.49662 12.43012 20806 ft 401 kts 47°
2026-04-30 20:54 51.53445 12.49487 19825 ft 395 kts 47°
2026-04-30 20:54 51.55316 12.52705 19343 ft 392 kts 47°
2026-04-30 20:54 51.57171 12.55898 18870 ft 389 kts 47°
2026-04-30 20:55 51.60828 12.62190 17816 ft 383 kts 47°
2026-04-30 20:55 51.62648 12.65316 17316 ft 380 kts 47°
2026-04-30 20:55 51.64575 12.68196 16786 ft 379 kts 36°
2026-04-30 20:56 51.69370 12.71698 15790 ft 379 kts 24°
2026-04-30 20:56 51.71824 12.73237 15296 ft 377 kts 24°
2026-04-30 20:56 51.76700 12.76261 14340 ft 374 kts 23°
2026-04-30 20:57 51.79121 12.77763 13773 ft 372 kts 24°
2026-04-30 20:57 51.81525 12.79259 13196 ft 369 kts 23°
2026-04-30 20:57 51.83917 12.80753 12621 ft 366 kts 24°
2026-04-30 20:58 51.87835 12.83214 11693 ft 359 kts 23°
2026-04-30 20:58 51.90138 12.84665 11147 ft 352 kts 23°
2026-04-30 20:58 51.92400 12.86093 10623 ft 347 kts 23°
2026-04-30 20:58 51.94632 12.87516 10049 ft 341 kts 25°
2026-04-30 20:59 51.98818 12.90846 8940 ft 329 kts 28°
2026-04-30 20:59 52.00809 12.92524 8689 ft 316 kts 29°
2026-04-30 21:00 52.04586 12.95733 8134 ft 297 kts 29°
2026-04-30 21:00 52.08155 12.98751 7583 ft 281 kts 29°
2026-04-30 21:01 52.11546 13.01602 7050 ft 268 kts 28°
2026-04-30 21:01 52.13163 13.02965 6779 ft 262 kts 29°
2026-04-30 21:01 52.16387 13.05688 6205 ft 260 kts 28°
2026-04-30 21:02 52.17991 13.07042 5929 ft 260 kts 28°
2026-04-30 21:02 52.19600 13.08400 5652 ft 260 kts 28°
2026-04-30 21:02 52.21206 13.09755 5363 ft 259 kts 28°
2026-04-30 21:02 52.22800 13.11098 5051 ft 256 kts 28°
2026-04-30 21:03 52.24367 13.12419 4739 ft 250 kts 28°
2026-04-30 21:03 52.25868 13.13794 4419 ft 245 kts 37°
2026-04-30 21:03 52.27015 13.15779 4142 ft 240 kts 57°
2026-04-30 21:03 52.27719 13.18217 3859 ft 235 kts 68°
2026-04-30 21:04 52.28285 13.20675 3566 ft 232 kts 68°
2026-04-30 21:04 52.28852 13.23082 3247 ft 223 kts 68°
2026-04-30 21:04 52.29946 13.27634 2665 ft 208 kts 67°
2026-04-30 21:05 52.30466 13.29801 2387 ft 201 kts 67°
2026-04-30 21:05 52.30964 13.31876 2143 ft 190 kts 67°
2026-04-30 21:05 52.31431 13.33826 1874 ft 179 kts 67°
2026-04-30 21:05 52.31867 13.35646 1645 ft 164 kts 66°
2026-04-30 21:06 52.32255 13.37271 1430 ft 146 kts 66°
2026-04-30 21:06 52.32616 13.38771 1222 ft 138 kts 65°
2026-04-30 21:06 52.32961 13.40216 1046 ft 136 kts 66°
2026-04-30 21:06 52.33307 13.41649 852 ft 135 kts 67°
2026-04-30 21:07 52.33649 13.43078 687 ft 135 kts 67°
2026-04-30 21:07 52.33986 13.44495 511 ft 135 kts 68°
2026-04-30 21:07 52.34335 13.45941 333 ft 134 kts 69°
2026-04-30 21:07 52.34660 13.47333 170 ft 134 kts 69°
2026-04-30 21:08 52.34946 13.48555 154 ft 90 kts 69°
2026-04-30 21:08 52.35121 13.49294 154 ft 61 kts 69°
2026-04-30 21:08 52.35262 13.49884 154 ft 51 kts 69°
2026-04-30 21:08 52.35360 13.50287 154 ft 29 kts 66°
2026-04-30 21:09 52.35461 13.50525 154 ft 24 kts 47°
2026-04-30 21:09 52.35582 13.50690 154 ft 21 kts 39°
2026-04-30 21:09 52.35677 13.50816 154 ft 18 kts 35°
2026-04-30 21:09 52.35782 13.50820 157 ft 15 kts 339°
2026-04-30 21:10 52.35872 13.50767 154 ft 11 kts 353°
2026-04-30 21:10 52.35919 13.50832 154 ft 9 kts 69°
2026-04-30 21:10 52.35943 13.50930 154 ft 12 kts 68°
2026-04-30 21:10 52.35973 13.51056 155 ft 11 kts 69°
2026-04-30 21:11 52.35999 13.51096 155 ft 6 kts 353°
2026-04-30 21:11 52.36035 13.51069 155 ft 5 kts 337°
2026-04-30 21:11 52.36062 13.51052 155 ft 0 kts 339°